GSAT0213 (GALILEO 17)

Last updated on Mon Sep 07 2026 00:02:48 GMT+0000 (Coordinated Universal Time)

1 41861U 16069C 26248.91486404 .00000013 00000+0 00000+0 0 9992 2 41861 55.5490 98.8538 0002305 330.9470 29.1276 1.70474207 60899
UTC large
Height (km)
Speed (km/s)
/
Latitude / Longitude
Inclination (degrees)
Orbital Period (minutes)
Azimuth
Elevation
Range (km)
Doppler Factor

Next 0 passes for location: London (51.5072 / 0.1276)

No passes found over London.
GSAT0213 (GALILEO 17)